#timestamp,LO_Frequency,Hit,StdDev 
1669870815.3,286047000.8,N
1669870835.2,286047000.4,N
1669870855.0,286046999.9,N
1669870855.9,286046999.9,N
1669870875.7,286047002.7,N
1669870895.6,286047000.2,N
1669870915.4,286047000.1,N
1669870935.3,286046999.7,N
1669870955.1,286046999.7,N
1669870975.8,286047002.3,N
1669870995.7,286047000.1,N
1669871015.5,286047000.1,N
1669871035.4,286046998.6,N
1669871055.2,286046998.4,N
1669871075.0,286046998.8,N
1669871075.9,286046998.8,N
1669871095.8,286046999.5,N
1669871115.6,286046998.4,N
1669871135.4,286047001.1,N
1669871155.3,286047000.0,N
1669871175.1,286047000.6,N
1669871195.9,286047002.4,N
1669871215.7,286047000.6,N
1669871235.5,286047002.6,N
1669871255.4,286047002.7,N
1669871275.2,286047002.2,N
1669871295.0,286047002.2,N
1669871295.9,286047002.2,N
1669871315.8,286047001.7,N
1669871335.6,286047003.9,N
1669871355.5,286047004.0,N
1669871375.3,286047003.8,N
1669871395.1,286046999.8,N
1669871415.9,286047002.5,N
1669871435.7,286047002.5,N
1669871455.6,286047002.7,N
1669871475.4,286047001.8,N
1669871495.2,286047001.7,N
1669871515.1,286047000.3,N
1669871516.0,286047000.3,N
1669871535.8,286047002.7,N
1669871555.6,286047002.3,N
1669871575.5,286047001.8,N
1669871595.3,286047002.2,N
1669871615.2,286047001.8,N
1669871635.9,286047002.3,N
1669871655.7,286047001.9,N
1669871675.6,286047003.9,Y
1669871695.4,286046999.9,P
1669871715.2,286047000.1,N
1669871735.1,286047000.2,N
1669871736.0,286047000.2,N
1669871755.8,286047002.4,Y
1669871775.7,286047001.8,P
1669871795.5,286047001.3,N
1669871815.3,286047002.1,P
1669871835.2,286047002.8,Y
1669871855.0,286047001.0,P
1669871855.9,286047001.0,P
1669871875.8,286047000.7,P
1669871895.6,286047000.3,N
1669871915.4,286047000.0,N
1669871935.3,286047001.0,N
1669871955.1,286046998.6,Y
1669871975.8,286046998.9,P
1669871995.7,286046998.8,N
1669872015.5,286046999.5,N
1669872035.4,286046997.7,N
1669872055.2,286046998.8,N
1669872075.0,286046999.3,N
1669872075.9,286046999.3,N
1669872095.8,286046999.0,N
1669872115.6,286047000.8,N
1669872135.4,286046998.5,N
1669872155.3,286046998.7,N
1669872175.1,286046998.7,N
1669872195.9,286046998.6,N
1669872215.7,286046998.6,N
1669872235.5,286047000.7,N
1669872255.4,286047001.2,N
1669872275.2,286047001.0,N
1669872295.0,286047000.9,N
1669872295.9,286047000.9,N
1669872315.8,286047001.1,N
1669872335.6,286047000.8,N
1669872355.5,286047000.6,N
1669872375.3,286047002.6,N
1669872395.1,286047000.5,N
1669872415.9,286047001.1,N
1669872435.7,286046998.1,N
1669872455.5,286046998.3,N
1669872475.4,286047000.8,N
1669872495.2,286047000.4,N
1669872515.1,286046999.8,N
1669872516.0,286046999.8,N
1669872535.8,286047000.9,N
1669872555.6,286046998.2,N
1669872575.5,286047001.2,N
1669872595.3,286046999.8,N
1669872615.1,286047000.9,N
1669872635.9,286047000.0,N
1669872655.7,286047000.2,N
1669872675.6,286047002.3,N
1669872695.4,286047002.1,N
1669872715.2,286046999.7,N
1669872735.1,286047002.6,N
1669872736.0,286047002.6,N
1669872755.8,286047001.5,N
1669872775.7,286047003.9,Y
1669872795.5,286047004.0,P
1669872815.3,286047002.3,N
1669872835.2,286047002.5,N
1669872855.9,286047002.4,N
1669872875.7,286047001.9,N
1669872895.6,286047001.5,N
1669872915.4,286047000.9,N
1669872935.3,286046999.7,N
1669872955.1,286047002.8,N
1669872956.0,286047002.8,N
1669872975.8,286047000.9,N
1669872995.7,286047002.3,N
1669873015.5,286047002.7,N
1669873035.3,286047002.2,N
1669873055.2,286047002.3,N
1669873075.0,286047002.5,N
1669873095.8,286047004.0,Y
1669873115.6,286046999.7,P
1669873135.4,286047000.4,N
1669873185.3,286047000.4,E
1669873195.2,286047001.2,N
1669873215.1,286047001.0,P
1669873216.0,286047001.0,P
1669873235.8,286046998.2,Y
1669873255.6,286047000.4,P
1669873275.5,286046998.2,P
1669873295.3,286046999.4,N
1669873315.2,286046998.9,N
1669873335.9,286046998.6,N
1669873355.7,286046998.6,N
1669873375.6,286046998.8,N
1669873395.4,286046998.1,N
1669873415.3,286046999.1,N
1669873435.1,286046999.0,N
1669873436.0,286046999.0,N
1669873455.8,286047000.8,N
1669873475.7,286047000.3,N
1669873495.5,286047000.0,N
1669873515.3,286046999.9,N
1669873535.2,286047000.5,N
1669873555.0,286047001.2,N
1669873555.9,286047001.2,N
1669873575.8,286047001.2,N
1669873595.6,286046999.0,N
1669873615.4,286046998.3,N
1669873635.3,286047000.8,N
1669873655.1,286047000.7,N
1669873675.9,286047001.1,N
1669873695.7,286046999.0,N
1669873715.5,286046998.9,N
1669873735.4,286047000.6,N
1669873755.2,286046999.3,N
1669873775.0,286046998.9,N
1669873775.9,286046998.9,N
1669873795.8,286046999.0,N
1669873815.6,286046997.4,N
1669873835.5,286046997.1,N
1669873855.3,286046998.5,N
1669873875.1,286046998.3,N
1669873895.9,286046998.3,N
1669873915.7,286046999.0,N
1669873935.5,286046998.3,N
1669873955.4,286047000.4,N
1669873975.2,286047000.0,N
1669873995.1,286047000.5,N
1669873996.0,286047000.5,N
1669874015.8,286047000.9,N
1669874035.7,286047000.0,N
1669874055.5,286047000.7,N
1669874075.3,286047000.9,N
1669874095.2,286047000.9,N
1669874115.0,286047001.1,N
1669874115.9,286047001.1,N
1669874135.7,286047000.7,N
1669874155.6,286047000.8,N
1669874175.4,286047001.1,N
1669874195.3,286047000.6,N
1669874215.1,286047000.5,N
1669874216.0,286047000.5,N
1669874235.8,286047000.7,N
1669874255.7,286046999.9,N
1669874275.5,286046999.7,N
1669874295.3,286047002.2,N
1669874315.2,286047002.6,N
1669874335.0,286047000.2,N
1669874335.9,286047000.2,N
1669874355.8,286046999.7,N
1669874375.6,286047001.5,N
1669874395.4,286047000.4,N
